GFSGBSN_700_spd_084.txt.gz
Wind_Speed
30 31 31 30 30 31 32 33 33 34 34 33 33 32 32 34 34 31 30 30 32 33 32 32 31 29 30 29 24 23 21 22 22 21 19 18 16 17 18 17 19 22 20 24 26 24 21
32 31 31 32 32 32 32 32 33 33 33 34 33 32 32 33 31 32 36 33 30 31 32 32 31 30 32 31 27 23 22 23 22 24 23 25 20 18 19 19 20 22 21 26 27 26 25
33 33 33 34 34 33 33 33 33 33 34 33 33 33 31 33 33 33 33 34 38 35 33 32 33 31 33 23 30 25 22 21 19 21 21 24 21 21 19 17 21 21 24 27 26 20 14
36 36 36 35 35 35 35 34 33 33 34 35 33 34 33 32 32 33 33 33 36 39 35 34 34 35 34 21 27 26 27 26 26 25 20 20 21 25 24 20 16 19 20 22 7 4 10
37 37 37 37 37 36 36 36 35 34 34 34 34 34 33 33 32 32 32 32 35 38 37 36 34 33 31 25 25 25 28 29 28 25 22 22 25 24 26 23 22 22 21 19 14 11 11
39 39 39 39 39 39 38 37 35 35 35 34 33 34 32 33 32 32 31 30 33 35 36 36 36 30 26 26 23 20 20 25 30 30 28 26 28 27 29 27 24 21 19 20 19 12 12
41 40 40 40 40 40 40 39 38 37 34 35 34 33 32 31 30 31 29 25 29 30 32 32 33 34 25 22 24 18 23 17 18 23 31 33 33 38 35 31 27 20 13 14 17 15 17
44 44 43 42 42 41 41 41 38 37 36 34 34 32 30 29 28 28 26 24 25 28 34 26 31 34 30 28 35 17 18 21 25 24 24 33 38 35 32 28 29 27 24 21 17 14 14
40 43 44 45 44 43 42 42 39 38 36 35 34 33 30 27 27 25 23 20 21 25 32 32 27 29 27 30 34 29 26 26 25 26 27 33 31 33 36 32 30 30 31 23 19 15 17
33 37 41 44 45 44 42 42 40 37 36 36 35 33 30 27 25 22 19 17 19 21 20 20 15 8 11 20 26 31 36 37 31 29 26 25 31 26 16 29 34 33 30 22 22 21 12
32 33 35 40 44 44 42 41 41 38 35 35 34 33 28 27 23 20 15 14 13 13 6 6 4 2 7 7 1 5 13 37 45 40 31 21 21 28 37 29 23 35 29 24 19 18 22
33 33 33 36 39 40 41 41 39 36 34 34 33 32 28 27 23 19 13 12 11 5 9 1 1 1 4 1 5 7 5 15 32 40 37 34 27 18 19 28 16 17 22 19 18 18 8
35 34 33 32 35 38 37 39 35 34 33 31 31 31 30 27 20 19 13 14 6 10 1 4 5 3 2 2 4 11 9 6 16 23 37 31 36 31 22 17 22 31 24 3 3 4 5
37 35 34 33 33 32 35 36 32 32 30 29 28 30 31 25 21 21 18 17 14 9 13 7 6 0 2 4 4 6 6 6 14 16 4 26 21 37 30 31 17 27 33 12 6 4 4
38 36 36 33 30 33 34 32 29 29 28 25 26 28 29 19 20 22 24 27 14 9 11 7 19 10 6 5 4 3 5 2 4 20 10 6 13 14 19 16 35 19 32 32 17 1 1
38 36 36 34 30 28 27 23 26 28 24 23 24 25 26 19 22 22 29 40 26 15 8 6 7 6 4 5 6 8 6 6 2 3 10 18 14 18 8 18 23 39 16 15 18 5 5
37 37 33 28 28 32 28 28 26 25 22 20 20 21 21 20 24 26 39 37 33 26 19 15 10 20 17 19 19 18 10 9 5 5 8 7 18 21 15 11 21 29 37 28 15 21 6
31 28 33 28 29 32 25 26 26 23 21 23 22 24 18 21 27 33 40 35 35 21 19 28 28 26 24 33 33 26 13 10 10 19 22 18 8 8 32 39 12 15 30 40 30 7 13
31 34 33 32 32 31 29 27 25 25 26 24 27 27 22 21 34 39 32 30 32 33 29 22 19 22 27 32 22 19 11 10 16 17 9 13 5 11 11 26 31 33 30 18 37 30 29
32 32 31 28 29 28 28 29 29 28 29 28 26 25 29 30 35 35 35 33 29 24 23 23 23 24 23 20 19 11 10 7 9 10 18 20 19 16 11 17 22 27 28 34 28 26 29
28 28 29 28 28 29 30 30 31 31 30 32 35 34 25 26 40 44 32 30 27 27 24 19 25 34 28 28 28 30 30 33 28 21 16 13 21 25 29 28 29 37 35 26 38 40 29
33 33 34 34 33 33 32 33 32 33 32 38 40 42 38 33 32 35 40 41 32 21 26 27 28 23 20 27 28 26 19 13 9 8 12 16 17 22 32 31 23 34 36 37 34 38 39
36 35 35 33 33 34 35 35 36 35 36 42 43 40 36 38 41 39 44 39 39 30 32 29 27 24 26 22 13 20 16 18 23 14 15 18 15 14 25 28 31 24 40 45 40 38 38
37 36 37 40 38 38 38 36 36 38 42 45 40 37 44 41 31 42 43 40 41 37 33 27 25 27 7 11 18 21 15 18 19 22 20 25 23 17 20 26 9 25 31 38 42 43 45
38 41 39 36 31 34 42 45 42 41 41 42 41 44 49 52 50 32 32 38 37 37 38 35 30 23 19 17 14 11 6 12 20 22 23 24 28 17 8 11 25 19 15 26 31 45 45
28 26 25 26 28 30 32 32 44 47 47 48 46 41 50 51 62 54 45 42 40 39 31 32 28 25 30 28 20 5 5 5 4 3 11 28 28 27 12 4 6 21 14 14 20 30 25
29 28 30 32 32 31 31 32 33 37 45 51 55 55 54 56 55 46 54 52 40 35 32 26 23 23 27 35 29 18 18 12 5 8 3 18 26 31 25 11 16 19 23 10 18 13 9
33 33 33 32 31 32 32 35 37 36 36 41 49 54 54 54 54 49 52 41 38 41 36 25 15 15 13 27 24 18 14 11 14 16 10 11 10 12 16 12 11 14 21 1 3 5 18
32 32 33 33 32 32 34 33 33 40 38 37 43 46 47 51 39 39 48 39 39 38 26 29 22 6 15 15 20 12 15 12 13 11 12 26 25 9 8 8 16 17 24 13 14 10 9

GFSGBSN_700_spd_087.txt.gz
Wind_Speed
27 28 28 28 29 30 30 31 31 31 31 32 33 33 33 33 33 34 34 37 37 34 32 30 30 31 30 30 26 24 20 20 21 18 16 14 16 15 17 17 22 27 25 22 23 22 23
30 30 31 31 31 31 31 32 32 32 32 32 32 32 32 32 32 32 32 33 33 34 36 33 29 29 32 32 24 27 24 23 25 23 21 21 20 20 23 20 23 25 22 22 24 22 23
35 34 34 33 34 34 33 33 33 33 32 33 32 32 33 33 32 33 32 32 34 34 32 36 37 33 34 21 24 26 22 21 21 21 23 24 25 23 26 22 23 24 27 25 24 20 21
38 37 37 36 36 36 35 35 34 34 34 33 33 32 32 32 34 34 34 32 34 33 33 34 34 37 34 21 25 25 26 26 28 25 24 21 25 24 25 24 21 19 22 24 14 10 6
39 39 38 37 36 36 36 36 35 36 35 35 34 32 32 31 32 34 35 35 35 33 33 33 34 33 30 24 23 23 24 25 29 28 29 27 23 25 25 24 23 23 22 20 17 12 13
42 41 40 38 38 37 36 36 36 36 37 36 35 33 33 33 31 31 33 34 36 35 34 32 32 30 25 23 24 18 15 13 25 30 30 26 27 31 28 28 25 24 25 24 22 14 15
41 41 41 40 39 39 38 37 35 36 37 38 36 34 33 32 32 31 30 29 33 34 32 29 24 27 16 18 18 14 13 15 19 23 31 33 35 38 32 32 29 19 19 19 17 14 21
38 37 37 38 39 40 39 39 37 37 37 38 37 35 34 32 29 28 30 30 30 33 35 24 26 28 23 24 31 27 23 19 23 22 20 30 39 34 33 24 27 27 26 29 24 19 18
37 36 35 34 34 36 37 40 39 40 37 36 36 34 33 30 29 24 24 25 26 30 33 33 25 23 25 26 30 25 31 26 27 27 27 29 22 26 34 30 27 30 31 30 26 20 19
39 38 35 33 31 33 33 36 37 39 39 36 35 34 32 29 28 23 22 20 23 24 22 19 15 8 12 15 16 23 29 34 28 28 24 20 23 19 16 26 30 32 31 28 26 21 11
40 38 38 36 33 32 31 31 35 36 37 35 35 33 31 29 25 23 20 17 16 16 6 6 4 5 6 4 6 8 6 36 40 27 22 16 14 22 32 17 19 24 21 25 25 22 18
41 39 38 36 34 33 31 29 31 32 33 32 32 32 31 28 24 22 18 14 12 6 9 4 4 0 1 3 6 5 1 9 25 40 35 27 18 11 8 16 28 19 14 8 13 14 10
41 37 36 35 35 33 31 29 26 28 28 27 30 31 31 28 21 19 17 15 8 9 3 5 7 3 2 2 2 3 2 3 5 10 26 25 30 30 23 15 10 20 13 5 4 5 8
39 38 37 36 35 32 31 28 25 24 26 26 26 30 30 26 20 20 19 19 14 6 14 7 7 2 4 2 2 3 5 5 7 7 3 15 13 32 29 30 20 21 31 8 6 6 7
37 36 35 32 31 30 30 25 23 25 24 23 26 28 28 21 21 23 25 27 12 15 16 11 10 8 4 3 2 6 9 7 6 0 6 1 7 7 11 13 29 21 22 28 14 1 2
34 33 33 32 32 29 29 24 20 17 18 17 22 25 25 20 23 25 29 34 23 13 9 9 11 7 5 6 3 4 5 6 3 5 4 3 7 11 9 8 19 25 12 11 19 7 11
32 31 31 31 28 24 25 22 22 22 20 23 22 21 18 20 22 22 32 30 29 19 18 12 11 10 7 5 5 6 2 5 6 6 5 9 5 9 10 4 9 20 27 15 8 18 8
31 31 30 23 21 22 25 25 24 25 21 23 22 21 18 18 26 31 31 25 27 26 20 18 18 17 14 15 17 16 8 11 13 8 13 11 6 5 15 21 11 8 11 26 24 12 10
28 27 24 23 25 26 26 24 24 19 23 25 26 24 19 21 28 35 25 21 26 28 25 17 14 18 23 26 18 18 13 8 6 11 4 8 4 5 7 7 15 14 13 17 20 22 32
27 24 25 27 30 28 28 27 27 28 28 27 28 23 27 30 31 23 30 26 22 18 19 23 23 20 18 19 18 9 10 9 6 5 11 15 12 13 11 11 16 19 18 17 17 22 24
29 26 26 26 25 24 26 28 26 30 30 32 32 33 30 21 34 33 29 22 22 27 21 17 14 22 18 13 15 16 13 17 21 22 19 16 13 12 17 21 25 28 28 26 32 36 28
27 27 25 27 26 26 25 24 26 29 33 35 41 42 31 34 22 29 33 32 29 21 17 17 19 13 13 22 21 20 15 11 12 5 6 11 12 11 19 18 22 29 28 30 37 39 42
29 29 29 29 29 29 30 30 29 32 37 45 44 42 35 28 35 22 30 25 29 24 23 21 16 16 16 15 17 18 17 15 18 17 16 16 11 9 9 3 13 21 31 26 36 41 46
29 30 31 32 31 30 31 32 35 35 40 42 43 41 38 34 35 36 35 23 26 27 26 22 18 17 12 13 14 11 16 15 17 21 25 23 18 14 14 16 9 33 23 15 26 29 34
30 30 30 31 32 32 33 33 31 36 41 42 37 42 43 45 36 33 29 23 26 30 30 24 23 21 21 15 12 9 7 11 15 18 23 27 24 11 7 12 23 29 20 18 22 25 20
31 31 30 32 35 39 41 39 39 39 38 43 41 39 39 35 43 32 34 28 21 22 22 22 20 20 21 23 17 8 5 4 3 3 13 27 27 25 11 9 6 8 12 14 19 28 12
25 26 27 27 26 25 27 27 32 40 45 43 43 40 40 45 37 22 35 34 32 31 25 28 24 23 20 28 26 18 9 11 5 5 7 10 19 33 26 16 18 19 17 13 11 18 11
26 27 26 28 28 30 29 28 29 34 37 52 46 43 44 44 40 35 24 28 28 33 35 24 19 24 19 25 24 14 15 14 16 15 5 9 10 17 24 14 13 10 15 12 14 21 15
30 28 29 30 31 31 30 30 29 28 36 39 55 45 47 48 48 40 43 42 41 35 30 28 29 19 14 16 19 16 15 12 21 14 21 23 27 10 12 8 12 14 21 17 19 17 18

GFSGBSN_700_spd_090.txt.gz
Wind_Speed
28 27 28 27 28 28 28 29 28 28 28 27 28 28 29 29 29 30 32 33 33 32 30 31 33 33 29 29 24 26 22 17 16 15 14 14 16 17 18 17 18 23 19 19 20 24 26
32 33 31 32 31 31 31 31 31 30 29 28 28 28 29 29 29 29 30 31 32 32 30 30 30 30 33 32 23 26 26 26 28 27 24 22 21 20 19 20 20 14 19 21 20 21 22
36 35 36 35 35 34 33 32 31 31 31 30 29 29 29 30 29 29 30 30 32 31 30 31 31 32 32 26 24 23 24 23 26 28 29 27 25 24 22 17 23 25 25 20 21 21 20
36 36 36 36 35 36 35 35 33 33 32 32 31 30 30 30 29 29 30 31 32 32 30 30 31 33 34 24 26 24 26 25 27 26 25 27 28 28 29 21 20 18 17 17 12 8 12
36 35 36 36 36 37 36 35 34 34 33 33 32 31 32 32 30 30 30 31 33 33 31 31 30 30 31 22 23 27 27 28 29 31 30 29 27 28 26 25 20 20 20 16 14 12 12
37 37 38 38 37 37 38 38 38 37 35 34 33 31 32 32 31 31 31 32 32 34 31 32 31 26 18 22 23 24 18 18 25 32 32 31 30 30 25 23 29 21 21 17 17 11 12
39 37 37 37 37 37 37 37 38 39 37 36 33 32 32 32 31 31 32 30 31 33 30 26 28 30 25 22 21 23 20 18 20 22 28 32 28 33 31 34 26 19 17 19 14 10 13
39 38 37 36 36 36 35 35 35 35 37 37 35 32 31 31 29 28 29 28 28 31 36 27 27 33 28 24 29 20 18 20 21 19 20 20 35 29 26 24 25 24 21 24 19 16 16
42 40 37 38 35 33 33 33 32 33 32 33 33 31 30 29 27 26 25 25 25 29 33 32 29 28 24 27 31 29 33 29 25 21 23 25 12 23 29 32 26 25 26 25 20 13 17
44 43 41 38 37 34 33 32 31 30 30 28 29 29 27 26 27 24 24 21 19 23 23 23 17 14 15 18 16 21 31 33 24 24 21 22 22 17 18 26 23 27 23 22 22 17 15
45 43 41 39 37 36 33 30 29 30 30 28 25 25 25 27 24 22 22 17 15 12 7 8 8 8 10 9 8 10 9 31 35 18 22 17 18 25 23 22 17 21 17 17 16 20 21
49 45 42 40 36 35 33 31 29 28 30 28 25 21 23 26 22 22 20 15 11 4 9 5 6 5 3 5 9 7 4 10 22 26 17 17 13 12 19 16 19 8 12 7 9 13 16
47 44 41 39 34 33 31 31 28 27 28 27 21 21 23 24 21 21 19 16 6 11 3 5 7 7 6 8 5 8 7 7 6 11 28 27 23 15 13 8 14 19 13 6 8 8 9
37 33 36 35 33 32 30 30 28 26 26 26 22 22 22 21 19 22 21 19 16 6 15 6 8 6 7 8 5 9 8 8 3 6 4 17 12 28 24 27 14 20 24 10 9 8 7
40 38 29 23 27 23 25 27 27 25 22 22 24 22 21 18 21 23 24 22 14 19 12 11 10 7 7 6 7 6 7 8 3 6 5 4 8 6 14 22 25 15 24 23 19 17 10
31 27 28 25 26 28 26 22 22 21 21 20 20 20 17 19 21 23 26 23 21 15 10 17 11 6 7 9 7 5 5 7 6 4 11 2 3 3 6 8 18 26 9 14 18 7 11
32 29 25 25 22 19 18 17 21 19 15 18 16 17 15 18 18 21 25 20 19 13 15 10 7 6 9 8 7 3 3 4 6 4 3 3 5 3 5 7 9 17 21 15 13 22 10
35 30 26 26 23 16 14 19 16 19 20 22 19 22 16 18 23 26 24 19 16 17 22 15 12 10 8 9 9 7 6 3 7 7 2 4 1 5 9 11 9 7 13 22 24 16 18
32 22 17 21 17 16 20 19 22 20 24 25 26 24 19 20 21 23 18 21 20 16 16 16 17 22 19 13 7 12 14 12 5 7 5 4 4 3 3 5 13 10 11 10 10 16 28
23 19 22 22 19 20 23 24 23 22 25 28 25 21 23 27 26 21 22 23 19 15 22 20 18 20 16 17 18 10 10 11 9 9 11 6 6 8 9 4 4 7 9 11 9 12 19
24 24 25 24 24 23 26 27 26 26 29 29 30 32 19 15 30 28 19 13 23 18 12 10 13 20 16 13 14 16 15 11 10 13 11 13 12 12 13 16 21 21 22 22 21 19 24
27 26 27 25 22 24 27 27 27 28 30 34 38 30 24 24 15 20 28 25 18 16 18 13 15 9 16 16 13 5 11 10 11 7 6 9 7 10 13 16 18 25 31 30 28 27 28
26 27 25 23 23 25 25 25 25 30 32 36 36 34 31 20 23 19 23 27 24 20 18 18 12 10 12 13 14 16 16 14 14 10 11 8 8 4 6 5 8 18 25 35 35 29 26
23 23 23 24 25 26 27 26 28 32 37 37 37 34 34 31 25 23 22 17 22 19 21 12 12 13 13 14 12 14 16 17 20 19 18 12 11 7 7 7 9 11 9 11 20 21 21
24 24 24 25 26 26 27 28 29 33 38 39 37 38 40 37 26 21 25 23 18 18 21 19 16 13 18 15 10 6 9 11 17 16 20 22 17 6 6 12 19 22 10 12 17 19 19
26 28 28 27 27 28 29 29 29 29 37 41 37 35 36 37 35 29 25 20 21 17 17 21 17 21 20 15 11 7 6 6 6 5 15 20 21 16 7 5 4 2 7 7 12 22 16
30 28 24 22 23 26 28 31 35 37 36 39 41 36 36 40 35 26 31 28 21 23 14 11 15 17 18 16 15 12 9 6 6 6 11 20 16 22 19 14 15 16 16 17 10 9 13
25 24 24 24 24 25 26 26 28 32 41 42 41 37 41 36 31 30 19 18 22 24 21 14 13 20 14 15 13 12 12 14 11 9 10 13 13 12 17 14 14 7 7 4 8 17 18
26 27 25 25 24 24 25 26 24 26 29 40 47 40 33 38 26 30 35 29 17 18 18 24 21 6 8 8 13 12 13 13 18 14 19 13 16 12 12 10 10 15 17 16 19 23 20

GFSGBSN_700_spd_096.txt.gz
Wind_Speed
23 24 26 27 27 27 27 28 27 27 27 29 29 28 28 28 29 29 29 29 26 25 25 25 25 24 22 26 17 22 23 23 21 18 17 20 22 21 24 23 22 26 29 27 25 27 26
25 25 25 25 27 27 27 28 28 27 28 27 28 29 30 29 28 29 30 29 29 26 25 25 24 24 25 27 19 17 21 20 20 23 18 17 17 18 19 21 24 23 26 27 27 28 26
21 22 23 25 26 26 26 26 28 28 28 27 28 28 29 29 29 29 29 30 30 28 26 25 25 27 28 18 19 19 22 20 20 21 26 25 17 19 18 21 25 26 29 31 30 30 29
20 22 23 24 25 28 29 29 29 29 30 30 29 29 29 29 29 30 29 29 29 28 27 25 25 28 33 21 21 18 22 22 22 25 24 25 21 24 26 23 23 23 22 28 25 25 28
20 22 25 26 28 29 30 30 31 31 31 31 31 31 30 30 30 31 30 30 29 29 28 26 26 28 32 20 16 18 19 23 25 25 25 26 28 31 20 25 26 26 33 30 29 24 26
24 27 28 29 31 32 34 34 34 34 34 33 32 32 32 31 32 31 30 30 28 30 30 28 25 24 12 7 12 10 15 16 16 22 24 26 26 29 26 24 34 27 29 29 29 25 21
29 31 33 35 36 35 36 37 38 37 38 37 36 34 31 32 32 33 31 29 26 27 30 26 16 28 22 21 24 25 20 16 18 17 21 24 26 33 28 29 31 29 29 30 27 25 24
33 35 36 37 37 38 38 40 41 41 39 40 40 38 33 31 30 31 30 24 29 28 37 34 35 34 28 22 31 24 19 19 17 21 18 21 36 27 25 27 30 31 33 37 32 30 27
35 36 36 37 37 38 38 39 40 41 40 41 40 40 36 29 27 29 26 20 29 27 34 41 33 31 23 24 29 26 25 25 23 23 23 26 24 25 24 30 32 34 36 31 31 27 30
40 41 42 43 44 44 43 42 42 41 41 41 40 39 36 28 25 25 14 23 22 20 17 32 21 21 17 20 24 24 27 25 23 29 24 29 24 24 27 29 29 36 30 29 28 25 28
40 42 44 47 48 48 49 48 44 41 40 39 39 37 35 27 21 22 17 27 14 10 5 4 13 12 11 11 8 10 13 25 30 27 20 35 27 26 29 31 21 31 30 25 25 26 27
42 43 45 47 47 47 46 41 36 34 37 37 35 34 34 24 21 15 20 16 11 5 9 12 13 11 15 14 14 9 9 13 14 27 29 30 24 26 30 27 30 22 24 21 20 21 22
41 42 43 43 42 40 34 33 28 28 29 31 27 23 27 23 19 16 22 14 8 12 9 16 19 13 13 12 12 15 10 13 13 14 25 29 31 27 21 21 23 24 17 12 12 9 11
40 40 40 39 35 32 29 27 29 32 37 35 28 23 22 22 15 16 14 11 16 16 20 15 7 7 12 11 14 15 16 15 18 17 15 17 23 31 26 27 24 30 28 14 12 10 10
38 38 37 36 30 24 26 35 35 37 31 23 23 21 19 14 11 16 15 23 20 21 16 14 13 16 16 15 13 14 16 17 14 16 13 11 23 20 33 26 25 29 32 30 29 17 2
37 35 33 32 28 30 33 28 27 22 24 16 20 19 17 12 12 14 20 32 22 22 18 13 14 10 15 17 19 16 16 14 11 10 11 6 9 11 10 32 26 21 19 22 23 14 14
35 33 31 29 28 28 27 23 23 17 18 20 16 18 10 11 16 17 29 26 19 24 10 11 12 17 20 12 8 16 11 9 12 5 10 6 8 5 10 15 25 27 31 28 20 23 10
34 32 30 29 26 24 22 21 20 17 15 17 16 17 11 12 17 20 27 19 19 19 17 15 18 14 14 11 7 9 2 3 3 10 7 4 6 8 14 9 10 9 26 31 24 17 18
34 31 29 26 22 21 19 16 16 16 16 16 19 19 15 15 18 19 17 19 21 18 20 18 16 20 19 15 7 10 6 5 3 1 6 7 4 9 10 8 10 11 11 15 31 24 23
31 30 28 24 20 17 16 15 16 19 17 17 21 16 18 20 21 19 18 22 18 17 19 16 18 18 22 20 17 10 4 4 6 4 8 9 8 10 10 7 7 6 12 7 8 11 19
31 30 27 25 22 18 17 16 17 21 16 20 23 26 13 9 15 20 21 14 14 17 17 17 21 22 21 20 21 22 20 18 15 9 7 5 10 13 20 16 14 14 13 12 12 12 12
29 28 25 24 24 22 19 17 20 22 22 25 27 26 18 20 16 17 18 21 19 16 16 18 19 18 25 26 23 24 18 18 15 10 10 8 14 11 18 19 20 21 21 21 21 20 21
28 26 25 25 25 24 24 23 24 23 27 25 27 24 25 25 14 19 16 15 19 17 17 19 21 19 19 20 18 20 20 12 12 7 11 10 8 8 15 13 15 19 22 21 22 23 24
26 26 25 23 21 21 23 26 27 28 29 28 26 24 27 30 24 17 15 16 14 16 21 14 12 20 16 15 15 17 17 12 14 12 10 9 10 8 7 9 8 12 5 5 6 10 11
26 26 25 22 20 19 19 20 24 29 31 29 25 26 25 28 19 19 19 18 13 11 16 17 21 17 12 18 10 9 15 17 21 24 23 19 14 7 5 9 13 19 10 7 1 4 2
28 25 22 23 20 19 19 22 23 30 31 30 27 26 27 29 24 16 19 18 15 13 13 14 13 14 17 5 9 8 9 12 11 8 28 23 22 16 9 7 4 7 7 1 3 5 4
28 25 23 22 22 22 23 24 25 28 32 33 29 26 27 30 27 19 14 15 14 14 12 10 13 16 17 15 13 11 17 10 8 12 27 31 27 27 22 8 12 11 8 8 3 1 4
25 26 26 25 25 25 26 27 27 28 29 33 31 30 30 30 28 18 20 20 15 16 14 14 15 19 16 17 9 12 11 11 8 6 22 25 20 19 18 11 13 9 4 1 2 8 8
26 27 27 28 28 28 27 27 28 28 30 32 32 29 30 33 21 17 25 26 27 22 19 22 24 14 15 12 13 8 11 9 9 5 11 14 21 17 16 14 9 8 5 6 9 10 13

GFSGBSN_700_spd_099.txt.gz
Wind_Speed
19 19 19 19 19 19 20 20 20 21 22 23 24 25 25 26 26 26 26 25 25 24 23 24 25 25 24 27 14 20 22 24 22 21 17 17 23 25 27 26 21 25 26 27 26 27 30
14 14 14 14 16 17 18 20 21 22 23 24 25 26 26 26 26 26 26 26 25 24 23 23 26 25 27 27 18 23 24 24 20 22 23 20 19 22 21 19 22 24 26 28 30 32 30
10 10 12 13 15 17 19 20 21 22 23 25 26 27 28 28 27 28 27 26 26 26 25 24 26 29 32 19 22 21 23 18 18 19 24 25 16 20 18 24 23 26 32 33 35 35 34
11 13 15 17 19 20 22 23 24 25 25 26 26 27 28 28 29 29 30 29 28 29 26 27 26 31 37 20 26 21 23 21 19 21 23 23 24 25 26 27 27 25 25 28 33 32 29
14 17 19 20 22 24 26 28 29 29 29 29 29 30 30 29 29 31 32 30 28 32 29 30 27 30 32 19 18 20 24 25 24 23 24 24 28 32 31 28 29 30 32 31 32 23 24
17 20 21 23 25 27 28 29 30 31 32 33 32 33 32 32 30 32 33 32 29 33 33 32 29 29 21 15 19 19 14 13 15 15 20 26 29 31 34 28 29 27 36 36 36 27 23
21 23 24 26 28 30 30 30 30 32 33 33 34 35 36 35 32 33 33 32 31 32 35 33 27 29 26 19 21 20 16 18 16 20 20 21 30 38 33 35 39 35 27 33 32 27 23
23 24 27 28 30 30 31 32 33 34 36 37 38 40 40 39 35 31 33 28 26 32 39 34 32 34 30 23 36 28 24 27 21 24 19 20 36 29 28 27 26 26 30 33 36 31 28
25 26 27 29 30 31 32 33 33 34 37 39 39 40 41 42 39 33 29 23 22 31 32 41 35 35 33 30 36 28 29 30 27 26 22 28 32 20 26 23 27 33 35 33 35 30 29
27 28 30 32 33 34 35 36 37 39 40 41 40 38 38 41 40 32 21 16 18 22 18 38 33 31 27 27 30 27 29 32 33 36 24 29 29 26 25 28 24 34 29 31 32 24 22
29 31 34 36 37 38 38 38 39 41 42 42 42 32 32 39 41 28 17 21 19 11 5 8 14 11 10 17 13 13 12 27 36 35 24 45 18 24 32 33 29 33 20 26 29 25 30
31 33 35 35 37 37 37 36 36 35 33 32 30 23 26 29 35 21 22 27 6 7 8 13 15 18 17 17 19 6 13 15 25 30 33 37 29 28 31 28 25 24 21 18 17 18 15
32 34 36 36 36 35 34 33 31 28 31 30 30 31 34 34 31 17 10 17 10 9 8 16 17 19 19 17 21 19 16 15 22 19 31 36 42 35 30 28 24 25 24 3 3 5 6
34 35 37 37 35 33 33 31 29 29 29 30 32 36 38 29 17 18 18 15 12 11 24 17 22 7 15 17 22 15 23 20 18 21 11 21 11 36 35 36 25 23 21 13 8 5 4
34 36 37 35 34 32 30 29 29 27 25 25 24 21 22 16 15 15 18 13 13 21 8 16 19 10 12 7 11 12 23 25 23 19 21 10 14 12 19 28 26 29 28 26 25 20 1
35 37 36 35 33 30 28 27 26 22 21 21 19 16 14 13 14 16 20 29 28 21 16 11 16 10 14 13 12 13 15 11 23 20 31 14 7 16 16 26 30 29 21 20 22 13 7
37 37 35 33 32 29 27 25 23 20 18 16 19 16 4 8 13 21 29 30 23 22 12 15 15 18 12 15 8 11 11 19 11 8 15 14 9 12 3 11 30 27 28 18 7 21 5
37 36 34 33 31 28 27 23 21 19 16 13 14 15 9 11 17 22 29 26 25 15 9 14 18 21 14 13 12 11 5 12 10 4 2 9 6 3 11 7 8 32 27 22 20 13 15
37 35 33 30 26 25 23 21 17 15 13 12 13 16 15 21 17 16 15 16 12 15 11 13 15 17 13 14 11 9 6 4 11 10 8 3 3 3 5 11 2 8 13 16 26 30 25
33 33 30 26 24 23 20 16 13 13 12 15 14 11 11 16 15 12 16 22 18 11 16 16 16 12 15 16 17 12 11 9 13 18 13 7 2 6 4 3 6 13 6 8 5 18 25
33 30 25 22 22 21 19 15 13 12 14 17 16 17 16 13 10 13 16 21 19 13 16 13 17 16 15 18 17 19 13 17 15 16 18 11 6 9 7 6 9 13 13 10 8 11 6
31 26 21 21 22 19 18 17 13 16 18 21 18 20 20 23 20 19 15 14 16 14 14 12 13 16 14 19 20 23 16 15 19 4 8 5 8 11 20 12 12 22 21 18 16 16 12
27 23 21 21 21 20 20 20 19 18 22 24 23 18 22 24 22 19 15 15 13 10 14 14 11 17 18 19 22 20 20 20 21 8 6 10 6 3 7 10 14 14 21 20 23 20 16
25 22 21 21 21 20 18 17 22 22 24 25 20 20 21 28 24 21 20 16 19 12 13 17 16 16 14 17 18 23 17 19 22 19 7 6 10 7 4 4 3 10 3 6 4 5 10
24 24 23 21 21 20 16 18 17 24 25 27 22 22 23 26 24 21 14 17 16 18 9 15 15 16 19 18 16 9 15 18 23 31 24 15 9 6 2 2 14 10 5 4 7 3 3
25 25 24 22 20 21 19 17 19 19 21 27 26 23 24 25 25 18 16 14 15 16 10 10 8 14 15 16 9 5 6 11 10 13 31 28 20 16 6 4 4 8 7 1 8 6 5
26 26 25 23 21 20 20 22 20 22 22 26 25 24 25 27 26 20 19 16 8 11 14 10 8 13 12 14 9 10 11 10 6 8 12 33 27 26 25 7 10 12 5 6 3 4 4
27 25 25 22 21 21 22 23 25 25 24 26 24 27 27 27 24 20 16 23 18 8 13 14 13 7 9 11 8 9 10 10 10 15 16 27 20 21 20 9 9 2 3 6 3 4 5
26 25 23 22 22 24 25 24 25 25 24 24 26 26 25 28 23 14 18 18 21 21 17 17 14 12 8 5 8 8 10 11 14 10 15 12 29 12 15 21 6 7 2 8 1 3 11

GFSGBSN_700_spd_102.txt.gz
Wind_Speed
16 16 14 12 11 11 11 12 13 15 15 17 18 19 21 21 21 21 20 21 21 22 23 23 25 25 27 28 17 20 25 24 21 20 18 19 23 26 32 31 29 36 33 28 25 21 20
12 10 10 9 9 10 10 11 12 14 16 17 19 20 21 22 23 24 24 24 22 23 25 26 27 26 28 29 20 25 24 22 23 26 26 27 20 20 27 31 33 32 28 26 24 25 31
8 7 7 9 10 11 13 15 16 17 19 20 22 23 23 23 23 24 25 25 24 26 28 27 30 32 34 18 21 25 26 21 21 22 24 25 26 22 26 27 28 24 31 32 33 31 34
8 9 11 13 15 17 18 19 20 21 22 23 24 24 26 26 26 27 28 27 24 28 30 29 32 34 38 21 25 23 25 24 23 24 21 20 27 32 31 28 27 25 31 36 33 31 31
11 13 15 17 18 20 21 22 23 24 25 25 26 27 28 29 28 28 30 29 28 29 30 32 33 34 37 21 18 18 26 28 29 27 25 23 26 34 33 31 30 32 37 36 35 29 28
14 15 18 19 21 22 23 24 25 25 26 26 27 28 29 30 31 32 35 32 29 31 34 32 34 33 28 20 28 25 21 20 22 22 25 29 31 35 37 36 37 29 35 40 36 28 25
16 17 19 20 22 24 25 26 26 27 27 27 27 29 30 31 32 33 37 36 34 35 36 35 32 37 34 20 21 23 16 22 24 23 23 21 34 44 39 37 39 40 35 38 37 29 25
17 19 20 22 24 25 26 27 28 29 30 30 30 31 33 35 35 32 34 35 36 35 43 37 37 40 36 28 38 33 27 29 28 27 21 25 39 34 32 31 33 37 41 47 40 32 30
19 20 22 24 26 27 27 29 30 31 32 33 34 35 36 37 35 32 28 34 33 36 41 52 40 41 38 38 43 39 35 37 37 34 29 33 27 22 30 30 32 35 36 36 33 21 25
20 22 23 25 27 28 29 31 32 32 34 34 35 36 37 38 34 28 21 30 31 28 20 53 45 42 41 38 42 43 35 40 45 44 30 32 34 32 20 27 27 34 27 33 32 29 24
22 23 24 26 28 29 32 34 34 35 35 36 37 38 38 38 38 23 20 28 24 19 6 17 19 16 17 28 29 27 21 33 46 47 32 43 14 28 36 36 23 32 18 25 29 33 27
23 24 26 27 29 31 33 35 36 35 35 35 35 35 34 30 32 24 28 20 23 9 10 14 6 11 21 18 19 15 12 19 28 39 36 40 28 20 21 27 29 27 28 32 30 32 18
25 26 27 28 30 32 34 35 34 33 32 33 32 29 27 25 21 21 24 16 17 15 9 19 19 14 11 24 21 24 19 20 18 20 38 40 45 42 32 27 27 25 19 8 7 5 6
26 27 28 29 30 32 33 34 34 33 32 31 29 25 17 19 18 13 20 22 15 17 37 19 28 21 14 22 28 24 25 22 17 20 4 19 16 37 37 44 34 35 31 16 8 5 5
28 28 29 30 31 32 33 33 33 32 30 28 26 21 12 11 11 10 19 23 10 12 3 18 14 6 15 11 13 11 24 26 24 17 22 9 13 10 14 37 39 40 26 25 25 13 3
29 29 30 31 31 32 31 31 30 28 26 25 23 18 11 10 10 10 18 25 24 20 23 19 16 9 18 21 14 4 2 8 18 15 22 21 24 17 14 14 29 39 29 19 16 8 6
29 30 30 30 30 31 30 28 26 23 22 22 20 18 8 8 11 14 24 27 24 21 21 20 15 22 15 18 20 16 10 10 9 10 10 13 20 18 14 16 26 29 37 16 20 15 10
30 31 30 30 30 29 26 23 21 20 20 18 18 16 6 6 10 16 23 23 22 22 15 21 16 17 11 18 15 10 14 16 25 24 3 4 8 14 19 7 4 23 28 30 13 4 4
30 30 29 29 28 25 21 19 18 15 16 16 15 15 8 9 13 20 16 17 18 19 9 10 13 14 15 12 10 14 8 11 14 21 17 12 3 7 11 8 5 12 8 17 22 20 16
32 29 27 27 27 22 17 17 15 11 12 13 12 8 6 2 5 9 12 16 16 17 16 12 17 11 13 10 9 9 12 8 12 20 16 12 10 10 6 5 3 4 2 5 7 7 9
31 28 27 26 24 19 16 16 14 10 12 14 14 13 10 9 11 12 13 14 15 12 8 11 11 7 10 16 18 15 11 9 9 9 6 12 6 11 3 2 0 3 7 3 7 2 4
29 26 26 26 21 18 16 16 14 13 14 17 19 18 16 17 15 16 15 14 13 8 12 13 15 15 10 12 14 16 15 13 13 5 6 1 7 11 5 5 3 12 11 11 11 12 7
28 25 26 23 19 18 16 16 16 17 17 19 19 17 20 19 16 17 15 14 17 22 6 6 8 11 13 14 18 16 16 17 16 14 11 5 9 11 2 8 8 9 7 5 7 12 12
25 25 25 21 21 19 17 16 16 18 20 20 20 19 19 23 19 16 15 13 14 15 17 9 9 12 12 14 17 17 15 17 15 14 16 9 6 7 8 11 1 2 5 5 4 5 8
24 25 23 22 22 20 18 17 13 17 21 23 21 21 19 25 22 18 11 13 14 14 11 10 10 11 11 14 16 13 13 14 25 24 21 19 8 5 4 2 10 6 1 6 3 8 7
24 24 23 23 22 20 18 19 17 18 18 24 22 22 21 22 22 17 14 11 12 14 8 6 5 10 9 12 9 4 4 6 6 10 24 24 20 11 3 2 3 5 6 7 6 6 5
25 24 23 24 23 21 17 18 22 19 21 21 18 22 24 25 23 20 17 15 12 10 11 13 10 5 7 10 8 5 8 10 9 7 6 23 28 25 19 6 8 16 4 5 4 3 1
25 23 23 23 22 22 21 20 23 21 21 23 18 21 23 26 25 21 14 14 15 14 12 13 8 5 5 6 5 6 9 9 11 13 13 18 20 24 20 11 11 1 5 3 3 2 0
24 23 23 23 22 22 21 20 23 26 25 24 22 21 21 24 22 14 18 18 16 15 18 16 11 11 9 9 10 10 12 10 14 10 14 12 21 24 18 16 8 5 5 11 12 6 5

GFSGBSN_700_spd_105.txt.gz
Wind_Speed
16 16 15 14 12 12 11 11 11 12 14 15 16 17 18 20 19 19 21 20 21 23 24 24 25 24 25 27 17 22 27 21 18 20 21 25 29 31 37 37 35 42 40 35 33 32 31
16 13 10 9 9 9 10 11 13 14 15 16 18 20 21 21 23 22 23 22 22 25 26 27 27 27 29 29 19 24 25 24 26 27 26 26 22 24 30 32 36 37 31 35 35 34 33
13 10 8 8 9 9 11 13 15 17 18 19 21 22 22 23 23 24 25 24 25 27 28 28 31 32 34 21 25 25 27 23 24 26 27 26 29 33 30 30 33 33 39 37 35 32 36
12 11 10 10 11 13 15 16 18 20 22 23 23 23 25 26 27 27 27 25 26 28 29 30 32 36 40 29 28 27 31 27 27 29 28 22 25 32 35 32 27 29 35 36 35 33 36
14 13 12 12 14 16 17 18 19 21 22 23 24 26 27 29 29 30 31 30 30 30 31 32 33 34 41 24 21 19 23 26 30 30 30 25 23 30 33 32 31 35 33 29 27 33 29
16 15 15 15 17 18 18 19 20 22 23 25 27 28 29 30 31 33 34 34 32 34 35 36 36 34 30 11 20 24 27 24 22 28 33 33 32 35 36 34 36 33 34 37 39 35 32
17 16 17 17 18 19 20 20 22 24 26 27 28 30 31 31 32 34 37 38 35 36 37 36 37 40 39 37 36 33 30 26 23 27 31 30 34 49 45 41 41 42 30 34 34 27 32
18 18 18 18 19 20 21 23 24 26 28 29 31 32 32 32 33 34 35 37 35 34 45 34 39 43 42 39 48 38 33 33 30 31 28 29 42 38 37 38 39 39 41 44 39 36 32
20 19 19 19 20 21 22 24 26 27 28 30 31 33 34 34 34 34 34 33 30 31 38 54 37 43 43 41 47 45 35 39 38 35 33 34 39 21 36 36 39 41 42 36 35 31 32
21 21 21 20 21 22 23 25 27 29 30 31 33 35 35 36 33 31 31 22 20 22 21 50 34 28 26 25 41 47 42 42 48 50 41 37 41 35 17 32 36 39 36 32 31 27 17
23 22 21 21 22 23 25 26 28 30 30 32 34 34 35 37 36 29 32 19 14 13 6 19 20 14 19 23 27 29 35 41 49 54 33 55 39 26 39 45 24 35 23 26 24 26 29
24 23 23 23 24 25 26 27 29 30 31 32 33 33 34 34 31 28 30 20 10 7 10 10 10 17 20 17 24 20 17 25 29 43 43 49 21 31 26 23 35 32 21 20 22 20 13
26 25 24 24 25 26 28 29 30 30 31 32 32 31 29 28 22 21 24 18 6 11 7 14 17 22 20 26 26 23 17 20 19 17 32 39 43 34 23 17 20 22 17 3 3 6 8
27 26 25 26 26 27 29 29 30 30 31 32 31 26 20 22 20 21 17 8 8 11 16 32 32 27 14 17 15 16 20 23 22 17 8 23 19 40 40 35 24 24 23 10 7 4 3
29 27 27 27 27 28 29 29 29 30 31 31 26 18 20 18 19 15 11 9 11 19 10 20 29 11 17 21 15 10 10 16 22 27 12 8 12 11 13 30 43 38 21 32 26 14 2
31 29 28 27 29 29 29 28 28 29 28 26 19 15 15 14 10 11 14 16 21 20 25 24 21 12 27 28 21 21 9 8 18 12 23 12 7 14 11 6 19 40 34 24 14 10 14
32 30 29 28 30 29 27 27 27 25 22 18 15 13 11 9 10 10 15 22 25 19 16 21 25 25 24 15 19 21 9 14 9 15 4 23 15 10 12 9 14 24 32 22 27 19 9
33 31 29 29 30 28 26 25 23 20 17 13 12 9 5 9 8 12 17 25 19 18 16 23 15 13 14 20 12 11 10 17 21 19 5 5 6 2 15 13 5 13 27 39 19 8 14
33 32 31 29 28 26 25 23 18 15 14 12 11 7 6 7 5 9 10 12 16 17 17 16 12 15 16 17 9 12 18 17 19 17 9 5 5 4 4 13 16 3 8 25 38 22 18
33 33 32 29 26 24 24 19 14 13 13 11 10 4 4 5 4 5 10 11 11 12 12 7 11 9 11 10 11 12 19 16 16 19 17 12 13 8 6 12 3 3 7 10 18 16 6
32 31 28 25 24 23 22 17 14 14 13 12 10 8 8 6 9 10 11 12 14 21 7 9 7 9 15 15 14 10 15 12 7 11 15 10 9 14 9 9 3 10 6 5 5 4 5
32 30 27 25 23 23 21 15 16 16 16 15 15 13 11 12 12 14 11 12 15 14 15 8 12 8 10 12 14 15 14 15 7 7 11 10 9 11 20 8 1 6 1 7 6 3 5
31 30 26 24 23 23 18 17 18 18 18 17 15 14 14 15 14 13 11 10 12 12 6 14 12 15 14 12 14 17 16 18 14 13 10 7 6 9 12 20 13 3 6 4 11 6 8
31 29 26 24 24 21 18 18 18 19 19 20 19 16 14 17 15 14 11 11 11 9 13 12 12 14 13 15 16 17 18 15 12 15 13 8 7 6 7 12 4 10 2 6 2 7 12
31 29 25 24 23 21 19 19 19 18 17 21 21 19 17 21 20 17 14 14 12 12 11 10 11 13 12 13 16 17 13 5 7 13 17 17 14 7 4 2 12 1 9 4 7 10 11
30 27 24 23 23 21 21 20 20 18 16 20 20 22 20 19 20 14 12 9 11 9 7 6 7 13 11 9 11 6 4 8 3 6 5 20 17 16 5 2 3 6 6 3 8 9 9
29 26 24 23 22 22 21 20 18 21 18 20 17 18 21 24 22 19 16 14 11 11 10 8 8 6 6 6 11 5 5 6 4 6 5 8 24 25 20 5 8 8 6 2 9 9 11
29 27 25 24 22 22 23 21 17 20 22 20 17 18 20 23 20 20 15 13 11 11 13 9 7 5 5 6 6 3 5 6 7 10 18 6 9 19 21 12 12 6 7 7 10 9 8
28 27 26 23 22 23 23 21 20 21 25 20 18 18 17 19 16 13 18 20 16 14 15 12 11 9 6 7 12 10 18 10 11 9 14 6 15 9 19 14 9 10 8 8 13 9 6

GFSGBSN_700_spd_108.txt.gz
Wind_Speed
20 20 19 18 17 15 12 11 10 11 12 13 15 17 18 19 20 21 22 23 24 26 26 27 28 28 27 24 14 24 24 23 20 20 18 21 27 31 36 37 36 42 43 39 35 33 34
20 20 18 16 14 11 10 10 11 12 14 16 18 19 20 20 21 22 22 23 26 27 28 30 31 30 31 30 20 19 20 20 24 26 25 24 20 24 32 33 35 40 42 39 41 38 36
20 19 16 14 12 11 11 12 13 15 16 17 19 21 21 22 23 24 25 25 27 30 29 30 32 33 36 26 25 25 28 24 23 23 29 32 29 30 30 32 31 32 37 38 40 33 36
20 18 16 14 14 13 13 14 15 17 18 20 21 21 22 23 25 26 26 26 28 31 31 32 34 36 40 30 30 31 30 28 29 27 28 23 27 32 34 34 28 25 31 37 36 37 38
19 19 17 16 15 14 14 15 17 18 19 19 21 22 24 26 29 31 32 30 30 32 34 34 36 37 41 24 16 22 25 22 21 29 31 29 30 32 32 32 30 34 35 30 30 28 26
20 20 18 16 15 15 16 17 18 19 20 21 24 25 27 29 31 32 34 33 33 34 35 37 38 36 28 14 7 20 33 29 22 23 27 32 32 35 39 32 32 25 32 35 37 31 25
22 21 18 17 16 16 18 19 20 21 22 24 26 29 30 32 34 36 36 34 34 40 36 35 37 41 41 37 41 38 33 34 30 26 25 27 35 51 47 42 39 38 32 28 31 27 24
22 20 19 17 18 18 19 20 20 22 24 26 28 30 30 31 32 35 37 38 39 40 52 40 41 43 43 40 48 39 38 39 36 33 27 29 40 39 38 38 40 40 39 44 40 35 30
22 20 19 18 19 20 20 20 21 23 25 28 30 31 32 30 32 35 36 36 37 39 44 59 40 41 34 32 41 42 36 44 43 47 42 38 44 16 32 35 35 39 44 38 36 33 33
22 20 20 20 20 21 20 21 22 25 27 29 30 32 34 32 33 35 37 33 31 33 29 45 14 6 13 20 29 25 18 27 43 49 46 39 45 43 29 25 27 39 36 36 34 27 20
22 22 22 21 22 21 21 22 23 26 28 30 31 32 33 36 36 35 33 26 22 22 5 19 13 10 8 18 26 25 21 20 33 41 32 57 37 30 35 45 30 33 26 27 26 24 24
23 23 23 23 23 22 22 23 24 27 29 30 31 32 34 35 35 30 24 20 18 3 7 13 22 29 35 28 28 31 20 21 27 26 39 44 39 28 39 34 32 35 17 8 8 12 8
25 25 24 24 24 22 23 24 26 28 30 30 30 32 34 34 29 22 20 19 4 4 10 13 26 36 31 23 25 24 19 23 23 15 22 37 43 30 26 22 24 27 20 3 3 6 6
27 26 25 25 25 24 24 25 27 29 31 30 29 30 29 25 19 17 17 13 2 7 13 28 26 37 19 21 23 24 15 17 19 17 13 15 13 39 34 29 25 26 35 13 7 4 4
28 28 27 26 26 25 26 26 28 30 31 29 27 25 20 16 14 12 12 8 4 12 14 25 28 21 26 29 29 24 13 13 5 18 8 6 10 12 23 45 31 20 33 33 2 3 1
29 30 28 27 26 27 26 27 29 30 30 28 23 17 14 13 11 10 10 9 13 17 18 19 23 13 30 35 27 29 14 16 8 2 15 12 7 8 7 19 37 36 26 13 13 6 7
31 31 30 29 28 28 27 27 28 28 28 26 17 14 12 9 8 8 9 13 23 11 13 15 21 23 24 23 23 23 25 11 25 13 3 15 16 11 9 8 12 29 33 22 21 10 5
32 31 31 30 29 28 27 27 26 27 26 22 12 10 8 8 9 7 9 13 16 11 11 18 18 13 18 24 18 15 24 26 32 24 16 2 8 16 22 11 7 15 27 32 16 13 15
34 33 32 31 30 29 27 25 24 26 23 18 10 10 9 9 6 7 6 7 10 13 14 12 12 11 13 17 10 14 20 26 29 28 18 10 1 5 15 14 5 2 7 20 34 24 16
35 34 32 31 30 28 26 24 23 24 21 14 9 6 6 5 8 8 7 6 9 11 11 5 12 9 15 13 12 12 17 17 12 24 21 10 13 14 5 5 7 3 6 1 20 24 27
33 32 29 30 29 26 25 23 23 22 19 13 10 7 10 7 14 12 9 9 12 16 13 9 6 11 10 13 16 13 19 20 11 9 16 13 15 14 14 17 8 7 3 10 3 19 20
34 33 29 29 28 26 23 23 23 20 20 15 14 12 11 11 13 13 10 12 13 13 13 12 17 15 15 11 13 20 19 18 17 13 11 11 8 10 13 18 17 17 6 6 4 4 4
35 32 30 29 28 25 22 22 19 19 20 17 15 14 14 12 11 13 12 10 10 13 6 11 16 20 17 14 15 14 17 18 18 14 9 7 8 9 3 12 24 3 4 3 0 1 3
33 31 29 28 27 24 22 22 20 20 19 18 17 17 16 16 15 13 10 12 11 10 17 10 12 17 17 16 17 15 16 14 13 10 12 13 9 4 4 3 6 14 2 10 5 11 9
32 28 27 26 25 23 22 22 20 21 20 19 19 19 18 20 18 18 14 15 14 13 14 12 8 17 18 18 16 10 11 4 5 7 8 13 11 5 2 2 6 9 3 3 3 2 6
35 31 29 26 26 24 23 22 19 19 18 18 16 17 21 23 22 17 14 11 11 12 12 11 11 15 14 15 9 3 2 6 2 3 4 8 14 7 2 0 1 2 3 3 6 5 4
35 33 28 27 26 25 25 23 21 18 19 18 17 17 19 24 23 20 17 13 14 12 13 10 8 9 10 9 9 4 3 6 4 5 6 14 6 15 12 4 6 10 9 4 3 5 9
32 31 29 27 26 25 24 24 20 16 18 20 16 18 20 22 17 19 18 13 11 10 12 9 10 5 6 7 8 8 8 9 9 10 9 9 6 4 9 4 9 7 4 4 5 9 13
35 31 30 29 26 25 24 25 20 17 17 20 20 17 18 20 13 11 11 15 17 15 15 13 13 10 6 7 9 7 17 8 21 4 9 3 17 17 11 7 2 9 5 9 11 10 11

GFSGBSN_700_spd_111.txt.gz
Wind_Speed
22 21 19 19 18 18 17 14 13 12 11 12 12 13 14 15 17 17 17 20 23 25 26 28 28 27 28 25 21 24 21 21 20 21 20 18 22 26 33 35 35 40 40 38 35 33 34
21 20 19 19 18 17 15 13 12 11 12 13 14 15 16 17 17 17 17 20 23 24 26 28 30 30 30 29 24 22 23 22 21 19 24 26 21 22 29 32 34 35 34 38 37 36 38
21 20 19 19 17 16 14 13 12 13 14 15 14 15 16 17 18 19 20 23 25 26 27 28 30 32 33 27 26 28 29 26 26 26 24 24 29 29 28 31 31 34 37 37 37 34 34
22 20 20 19 17 16 15 14 14 14 14 15 15 16 18 19 21 21 24 27 29 30 31 32 31 33 35 34 25 22 22 16 17 20 29 23 25 31 35 34 30 27 30 27 18 23 29
22 21 20 20 18 17 16 15 14 14 15 16 17 17 20 22 24 25 29 32 33 33 33 33 35 36 31 14 13 17 23 18 20 25 19 22 30 31 31 33 32 31 29 25 24 17 18
22 22 21 21 18 17 15 14 14 15 17 18 19 19 22 27 29 31 31 32 33 34 34 35 32 32 22 29 37 32 31 38 40 29 26 22 27 38 40 35 32 20 26 32 32 20 22
22 22 22 20 19 17 15 15 15 17 18 19 19 21 25 29 33 35 34 33 33 37 30 34 34 39 39 39 40 37 34 37 38 35 33 27 27 45 43 43 43 37 29 29 22 13 18
22 23 22 20 18 17 15 16 16 17 18 19 21 23 27 29 32 34 37 36 35 38 47 37 35 32 35 39 40 31 31 35 36 39 36 32 41 38 35 37 39 40 39 45 33 33 28
23 23 22 21 18 17 16 16 17 18 18 20 23 25 28 30 31 32 35 37 38 40 39 31 16 11 15 19 25 18 11 19 29 37 36 39 53 29 31 35 37 38 41 37 35 21 25
23 22 22 21 19 17 16 17 18 18 19 21 24 27 29 31 31 30 34 35 35 35 26 13 15 12 16 25 26 15 20 22 25 24 14 28 50 44 31 33 28 32 32 30 28 20 19
22 22 22 20 19 17 17 17 18 19 20 22 25 28 31 32 32 32 32 29 26 26 5 16 10 17 19 29 33 36 26 27 33 31 17 36 25 26 43 47 26 25 18 19 18 23 19
22 22 21 20 19 18 18 18 19 20 20 23 26 30 31 31 32 30 26 21 20 6 5 12 21 29 29 28 19 25 24 26 27 24 29 37 32 25 34 35 39 34 17 11 11 15 10
22 22 21 20 19 19 19 19 20 20 21 23 27 30 31 31 29 25 18 15 5 2 15 14 28 24 28 26 26 28 26 17 21 15 21 26 28 32 29 29 26 28 20 8 8 7 9
23 22 21 20 21 20 20 20 21 21 21 24 27 30 29 29 25 19 13 11 2 7 12 20 24 27 20 21 33 36 35 25 13 22 24 15 13 21 36 31 29 33 33 14 9 7 8
23 23 22 22 22 20 21 21 21 22 22 24 26 28 27 24 19 15 10 4 3 10 13 20 24 20 26 23 25 28 30 22 27 33 9 8 11 12 15 39 29 27 35 33 7 5 4
24 24 24 22 22 22 21 22 22 23 23 23 24 26 23 19 15 11 6 3 6 11 11 13 11 15 22 28 22 29 16 23 34 34 30 10 9 9 5 20 33 23 33 19 16 9 7
24 24 25 23 22 22 22 22 23 23 23 22 23 22 19 14 12 8 5 4 10 4 10 9 15 19 18 21 22 17 23 35 28 37 38 17 7 8 8 15 31 35 21 23 22 13 10
24 24 25 24 24 24 23 23 24 23 22 22 21 17 14 11 10 7 5 6 7 6 9 13 12 13 15 21 20 13 21 24 28 30 39 19 5 15 19 12 11 27 38 28 23 18 18
25 25 24 25 25 25 24 24 25 23 22 20 19 17 15 11 8 7 5 3 6 6 11 9 7 11 17 18 15 19 21 28 24 24 30 32 8 7 11 15 5 10 9 29 32 15 21
26 26 26 25 25 24 24 25 24 23 21 19 16 11 10 9 10 8 7 6 7 6 8 11 10 9 17 17 12 18 22 24 23 10 20 27 17 16 3 3 5 10 6 7 23 27 30
25 25 24 24 23 25 25 24 23 23 22 17 15 13 11 8 12 11 10 8 10 10 6 9 8 12 16 20 23 13 23 25 21 16 16 19 11 23 14 15 9 5 3 7 9 20 23
25 25 26 26 19 22 23 23 23 21 21 18 14 14 12 11 12 12 12 10 12 13 13 12 12 15 13 17 16 27 27 23 28 27 21 12 9 16 6 15 13 4 2 3 6 6 10
27 31 32 29 24 24 24 24 22 22 21 19 15 16 15 12 12 12 13 13 11 13 11 7 14 18 15 17 20 22 22 23 27 27 22 18 13 18 7 16 6 10 4 5 7 4 5
27 29 32 30 26 24 24 23 22 23 21 16 16 17 16 14 14 12 12 11 12 12 17 12 11 14 18 19 20 17 15 12 10 9 12 15 15 12 12 16 3 3 12 4 7 1 7
30 30 28 26 23 23 22 22 23 21 20 16 17 17 16 18 17 15 14 15 15 15 16 15 9 13 17 20 20 13 12 5 5 8 11 8 8 7 5 11 8 6 6 5 4 3 5
32 31 26 23 22 23 23 24 24 21 19 19 17 18 17 18 19 16 16 14 15 13 13 11 10 14 16 17 10 6 5 8 5 8 8 8 7 7 6 4 2 6 6 5 3 2 3
35 33 31 31 25 23 24 25 24 20 19 18 15 15 15 17 14 16 16 12 11 12 14 10 11 9 9 9 7 5 2 9 6 9 11 11 4 12 12 6 9 7 7 5 2 3 4
39 37 36 35 29 25 25 25 25 20 18 19 16 16 15 20 15 15 14 13 12 13 11 9 10 6 4 4 4 7 7 8 10 12 9 7 6 2 5 5 8 4 1 1 5 4 8
42 37 35 31 29 27 27 26 25 20 18 19 17 17 15 17 12 8 10 9 12 13 16 12 10 10 6 5 6 5 9 7 16 8 11 6 9 13 8 7 8 8 4 3 3 7 9

GFSGBSN_700_spd_114.txt.gz
Wind_Speed
29 26 24 21 20 18 18 17 16 13 12 12 12 13 12 12 11 13 15 16 17 19 21 23 23 23 24 22 22 20 19 19 18 18 21 22 20 17 24 21 26 33 32 28 28 34 33
30 27 24 22 20 19 18 16 15 13 12 12 13 14 14 12 12 14 16 18 19 22 24 25 26 26 26 26 22 21 22 22 22 20 21 22 26 23 24 25 26 20 20 24 26 27 30
29 26 23 21 21 19 17 16 15 14 12 13 15 15 13 13 12 14 17 19 22 24 26 28 29 29 26 26 25 26 24 18 21 25 25 25 26 28 22 22 23 24 27 27 28 27 30
29 26 23 22 21 19 18 17 16 14 13 13 14 15 15 15 14 15 19 22 24 26 27 28 29 28 30 17 9 12 14 16 15 16 12 13 26 30 32 33 29 22 24 27 20 17 20
28 25 24 22 21 20 19 18 16 15 14 12 14 16 16 16 15 18 23 26 27 28 26 27 28 24 15 16 19 12 26 32 25 24 23 23 18 28 31 25 26 27 34 27 23 16 16
27 25 24 23 21 21 20 18 16 15 13 12 14 17 17 18 20 21 25 27 28 27 27 25 26 26 18 24 34 38 34 32 32 32 33 29 26 28 28 28 37 24 29 27 30 25 23
26 25 25 24 23 22 21 18 16 15 13 12 14 16 17 20 24 25 25 27 28 31 27 26 27 29 30 30 30 28 27 27 32 35 33 22 24 39 30 32 35 31 32 32 26 18 19
25 25 25 23 23 22 20 17 15 14 13 12 13 16 18 22 25 28 28 28 27 28 31 28 25 25 22 24 21 24 27 24 24 21 16 21 40 42 28 29 32 31 34 40 30 25 24
25 24 24 23 22 21 19 17 14 14 13 13 14 16 18 22 25 28 30 29 30 31 31 16 15 16 17 23 30 34 22 22 23 21 16 25 55 16 28 29 30 34 35 32 28 22 26
24 24 23 23 23 21 20 17 15 13 13 14 15 16 19 22 24 26 28 29 29 29 15 9 14 12 24 30 12 26 28 26 24 25 20 26 31 29 32 35 31 33 28 26 25 19 27
24 22 23 23 23 21 20 17 14 13 13 15 16 17 20 21 25 25 26 26 25 24 5 14 14 23 24 22 26 17 25 22 28 28 25 50 30 16 22 47 26 39 26 21 15 19 21
22 21 23 23 23 22 20 16 14 13 13 15 16 18 20 23 25 24 25 23 21 6 1 9 14 17 24 23 19 17 24 20 21 27 31 43 35 35 34 21 32 28 18 16 15 16 19
23 24 23 23 23 22 19 17 14 13 13 16 16 18 21 22 23 23 22 19 5 1 9 7 15 22 23 20 17 20 24 22 18 23 21 33 36 34 33 32 25 33 27 13 12 12 17
21 22 23 23 23 21 19 17 14 13 14 15 16 18 20 22 22 20 17 12 1 4 7 12 18 20 10 16 18 20 22 16 29 32 27 25 28 28 29 35 35 33 39 20 19 13 15
21 22 23 22 21 20 20 16 14 13 13 15 17 18 20 21 20 17 12 3 1 3 9 15 17 10 13 18 17 18 20 18 25 27 17 24 16 21 23 31 33 36 37 42 25 18 11
22 22 23 22 22 21 19 17 16 14 13 15 16 18 20 19 16 13 7 2 4 6 8 10 7 7 18 20 16 20 14 14 19 21 27 28 27 17 13 19 26 33 31 33 28 19 20
21 22 23 23 22 21 19 18 17 13 14 15 15 18 18 16 14 9 2 4 6 6 7 6 7 12 13 16 16 21 11 27 18 29 29 32 16 11 6 12 28 30 28 35 34 28 15
24 22 23 23 22 21 20 20 16 15 14 14 14 16 16 14 10 8 5 7 6 3 6 8 9 8 12 16 22 18 16 21 25 27 31 24 14 14 16 7 12 32 28 35 29 30 30
22 21 21 22 22 22 21 20 17 17 16 13 14 16 15 13 8 7 8 7 5 3 3 5 5 9 11 17 15 12 20 23 19 27 21 29 14 21 7 11 8 13 31 28 32 26 28
22 22 21 21 22 22 21 21 19 19 16 13 14 13 12 11 12 9 8 9 7 5 5 5 6 8 14 16 13 20 23 18 24 17 19 23 22 16 12 23 1 12 24 18 32 29 26
24 22 21 21 21 20 20 21 20 19 15 14 14 15 13 11 10 9 8 6 7 7 8 7 6 7 12 14 22 12 24 29 25 17 20 21 16 18 21 19 8 3 13 16 19 30 26
26 25 24 23 19 18 19 21 20 19 18 16 15 14 13 14 12 11 10 8 9 10 13 10 10 13 13 17 18 27 28 22 27 30 28 15 13 20 22 15 11 4 4 5 11 22 24
24 24 22 17 20 18 18 21 20 21 19 16 13 14 14 14 13 12 11 9 9 13 13 11 10 17 16 16 22 26 26 24 25 23 19 12 12 20 9 17 6 5 7 1 5 5 6
27 24 23 24 28 25 20 22 22 22 19 17 17 17 15 14 14 12 13 13 13 12 16 15 13 16 16 17 20 20 16 14 7 8 13 17 11 9 16 14 3 4 10 1 3 3 4
28 29 26 29 32 29 23 21 23 23 21 19 17 16 15 16 15 14 14 13 14 16 17 16 12 15 17 16 17 14 9 5 4 8 8 14 6 7 8 13 4 5 14 10 8 5 5
30 30 28 29 31 26 22 22 22 23 22 19 17 16 16 14 12 14 14 14 13 11 11 12 12 13 14 13 10 8 6 8 4 7 8 12 6 6 10 6 3 5 9 9 9 4 1
31 32 32 30 29 23 20 22 23 23 22 19 17 16 17 14 14 12 9 8 9 7 8 10 9 9 10 10 8 7 6 8 5 9 9 10 6 3 7 5 7 11 13 7 4 9 1
36 34 34 32 30 24 22 22 24 24 22 19 16 16 15 13 13 13 13 11 13 13 10 10 5 5 5 5 4 5 6 7 7 10 6 7 7 3 5 4 5 10 4 9 12 11 2
34 38 35 36 31 29 26 22 24 25 22 21 18 16 15 15 10 6 7 7 9 13 14 14 10 6 3 3 3 5 9 7 11 7 14 4 9 13 7 8 15 15 9 13 11 10 12

GFSGBSN_700_spd_117.txt.gz
Wind_Speed
39 37 33 31 28 24 22 20 19 18 15 14 13 11 12 12 14 15 14 15 15 16 16 17 18 19 18 17 11 17 18 17 18 16 17 16 15 17 21 24 24 35 34 32 31 30 31
38 37 36 33 28 28 24 21 19 17 15 16 13 11 11 12 14 15 15 15 16 17 19 21 21 20 18 15 16 19 21 22 20 20 19 20 19 15 25 28 27 28 30 29 33 33 34
40 41 38 35 31 28 25 21 19 17 16 16 13 12 13 13 14 16 17 17 18 20 22 24 22 20 19 18 18 17 16 17 13 15 17 19 23 25 18 20 23 29 31 33 33 31 29
45 46 40 34 32 27 24 22 19 18 17 16 14 13 13 13 14 17 18 19 20 22 24 24 21 20 17 17 11 16 19 18 20 22 23 20 17 22 28 28 30 27 29 34 31 28 30
46 45 39 34 31 27 25 22 20 19 17 16 15 13 13 14 15 17 19 21 23 23 23 22 19 11 10 12 19 19 24 27 34 34 30 30 27 28 25 23 27 31 37 35 34 26 28
48 47 38 33 30 27 24 22 21 19 17 16 15 13 14 14 14 17 20 23 23 21 19 18 10 10 16 20 25 24 25 24 24 23 24 29 27 30 29 23 33 30 31 33 32 27 29
52 44 33 30 28 27 24 23 21 19 17 16 15 13 14 14 15 17 20 22 23 23 21 18 20 16 18 16 15 17 21 23 25 18 18 15 25 44 30 31 38 32 34 37 33 25 25
46 42 34 29 27 25 24 24 22 19 16 15 14 14 14 14 16 17 19 19 18 17 20 19 15 12 12 17 22 22 21 20 21 21 20 22 38 36 31 34 37 36 37 42 40 34 32
42 29 27 27 26 24 25 25 22 19 16 14 13 13 13 15 17 19 18 18 18 17 16 11 7 7 14 22 20 13 21 18 19 23 21 27 44 26 30 33 40 43 41 43 36 31 28
37 33 28 26 26 26 25 25 23 19 17 14 13 12 13 15 17 19 19 20 18 17 2 3 4 10 15 21 3 19 12 20 20 26 25 35 37 34 32 38 39 37 39 37 34 30 31
27 25 26 27 27 26 26 24 22 19 17 14 13 12 12 13 15 17 18 19 17 14 4 4 3 14 16 16 18 15 17 22 24 27 23 39 38 35 38 33 27 45 34 33 29 29 31
30 28 27 28 27 26 25 24 22 19 17 14 12 10 11 12 13 15 16 17 16 3 2 2 5 14 17 15 18 16 19 16 20 22 24 30 33 32 41 43 38 31 30 34 28 29 23
24 25 26 26 25 25 24 23 21 19 17 14 11 11 11 11 12 14 14 14 5 4 4 2 9 15 16 15 19 17 20 19 18 25 35 39 28 26 38 40 37 35 30 23 20 20 20
25 25 25 23 24 24 23 23 21 19 16 14 12 10 10 10 11 12 11 8 3 2 4 7 10 13 10 14 17 21 20 21 16 21 30 29 43 26 29 28 38 40 37 27 24 16 23
24 25 26 28 27 25 24 23 21 19 16 14 12 10 9 9 10 9 7 1 2 4 6 8 10 7 7 15 18 18 20 15 14 18 19 32 35 52 30 24 26 35 43 39 39 29 20
23 23 24 25 24 24 23 22 20 18 16 13 11 11 8 9 7 7 2 5 3 8 6 4 5 5 12 16 16 19 19 9 20 16 24 30 51 32 30 18 24 30 33 36 38 23 23
23 23 22 22 23 23 22 21 20 18 16 12 11 9 8 8 7 4 2 5 5 8 7 3 6 11 13 15 14 20 13 22 14 27 25 35 18 39 26 5 14 21 32 33 30 36 18
24 21 24 25 25 23 22 21 20 19 15 12 12 10 8 8 3 4 3 5 8 5 5 5 7 9 11 12 18 21 18 18 23 23 30 22 26 26 40 16 9 12 27 33 23 28 33
18 22 19 22 22 22 23 22 21 19 16 14 11 14 11 8 5 6 9 7 7 6 6 4 7 9 10 12 19 16 19 21 15 25 21 25 16 24 26 17 23 13 17 27 31 30 30
20 23 23 24 25 24 23 23 21 19 18 16 13 9 10 9 11 10 11 7 7 9 9 9 10 11 9 13 12 17 24 18 24 21 22 17 21 27 22 28 28 35 23 23 23 31 31
26 24 25 20 21 22 22 22 20 19 18 17 16 12 11 7 8 9 8 7 8 6 7 8 8 11 10 16 19 20 22 27 20 15 17 20 27 23 28 29 24 24 13 20 16 20 26
22 21 18 21 23 19 19 19 20 20 19 19 18 12 12 8 9 10 10 8 10 9 10 9 12 11 14 17 19 27 26 23 31 19 21 19 18 22 29 13 22 16 0 17 18 27 22
27 27 27 25 23 21 21 21 21 20 20 20 18 14 11 12 9 11 10 8 8 11 11 12 12 14 17 18 21 25 28 29 30 27 23 18 15 22 22 18 26 5 13 4 7 9 22
29 27 26 26 25 25 22 21 19 20 19 18 17 15 14 10 12 11 9 11 12 11 13 12 13 15 17 20 22 22 26 23 19 17 14 17 16 16 21 21 3 10 15 10 9 3 3
32 29 27 27 26 22 26 21 19 21 19 19 17 15 12 11 10 12 12 10 11 12 14 14 13 14 17 16 17 19 15 13 12 8 8 11 11 11 10 19 5 6 15 18 15 10 9
38 34 31 29 27 26 29 27 23 22 21 21 19 17 15 12 9 12 12 12 12 10 11 13 12 12 12 11 11 12 15 16 6 6 6 10 13 7 13 9 4 16 20 17 14 6 16
38 35 33 34 30 30 30 26 21 23 23 21 19 17 17 16 12 14 8 9 9 9 9 9 11 7 8 8 13 15 12 10 6 9 11 13 9 9 10 6 7 18 22 12 5 18 28
36 33 33 32 30 31 28 24 22 23 23 21 14 14 15 13 10 12 17 13 11 10 9 7 6 8 6 10 10 8 6 6 9 12 6 8 11 6 9 5 4 23 22 17 21 20 20
36 34 34 35 34 31 27 25 20 21 24 22 15 13 13 12 13 12 14 17 19 18 14 14 10 10 5 6 6 5 8 9 11 9 11 4 12 11 7 18 28 25 20 17 17 16 4